Location: North Runcton
(52.7000°N, 0.4333°E)
Time: 19:42:49
(UTC+00:00)

Exosat Rocket - Pass Details

Date: 19 May 2025
Orbit: 761 x 2512 km, 72.3° (Epoch: 21 June)

Event Time Altitude Azimuth Distance (km) Brightness Sun altitude
Rises 23:08:26 0° 330° (NNW) 3,414 8.3 -16.6°
Reaches altitude 10° 23:10:56 10° 331° (NNW) 2,382 7.2 -16.7°
Maximum altitude 23:16:05 90° 176° (S) 769 3.4 -16.8°
Enters shadow 23:18:52 27° 153° (SSE) 1,448 4.4 -16.9°
